Location: *
(55.5817°S, 142.4781°W)
Time: 06:49:07
(UTC+00:00)

ATLAS 2AS CENTAUR R/B - Pass Details

Date: 29 April 2025
Orbit: 1038 x 1173 km, 63.7° (Epoch: 23 May)

Event Time Altitude Azimuth Distance (km) Brightness Sun altitude
Exits shadow 15:21:20 11° 232° (SW) 2,980 4.5 -12.9°
Maximum altitude 15:28:29 78° 145° (SE) 1,203 3.0 -11.9°
Drops below altitude 10° 15:35:58 10° 58° (ENE) 3,103 6.3 -10.9°
Sets 15:38:43 0° 56° (NE) 4,063 7.1 -10.5°
